Appleton, MN

8:18 PM CST on January 16, 2018 (GMT -0600)
Appleton Municipal

Weather History for KAQP - November, 2012

Change the Weather History Date:

Monday, November 5, 2012

  Actual Average Record
Temperature  
Mean Temperature 37 °F -  
Max Temperature 39 °F 43 °F 73 °F (2001)
Min Temperature 35 °F 26 °F 12 °F (2003)
Degree Days  
Heating Degree Days 28    
Moisture  
Dew Point 35 °F    
Average Humidity 91    
Maximum Humidity 100    
Minimum Humidity 87    
Precipitation  
Precipitation 0.02 in - - ()
Sea Level Pressure  
Sea Level Pressure 30.09 in    
Wind  
Wind Speed 6 mph (ENE)    
Max Wind Speed 13 mph    
Max Gust Speed 20 mph    
Visibility 8 miles    
Events Rain , Snow    
Averages and records for this station are not official NWS values.
T = Trace of Precipitation, MM = Missing Value Source: NWS Daily Summary

Daily Weather History Graph

Daily Weather History Graph

Search for Another Location

Airport or City:

Trip Planner

Search our weather history database for the weather conditions in past years. The results will help you decide how hot, cold, wet, or windy it might be!

Date:

Astronomy

Nov. 05, 2012 Rise Set
Actual Time 7:09 AM CST 5:05 PM CST
Civil Twilight 6:38 AM CST 5:36 PM CST
Nautical Twilight 6:02 AM CST 6:11 PM CST
Astronomical Twilight 5:28 AM CST 6:45 PM CST
Moon 10:44 PM CST (11/5) 12:29 PM CST (11/5)
Length of Visible Light 10h 58m
Length of Day
9h 56m
Waning Gibbous, 62% of the Moon is Illuminated
Nov 5
Waning Gibbous
Nov 6
Last Quarter
Nov 13
New
Nov 20
First Quarter
Nov 28
Full

Hourly Weather History & Observations

Time (CST) Temp. Windchill Dew Point Humidity Pressure Visibility Wind Dir Wind Speed Gust Speed Precip Events Conditions
12:13 AM 37.4 °F 32.1 °F 35.6 °F 93% 30.16 in 5.0 mi NNE 6.9 mph - N/A   Overcast
12:33 AM 37.4 °F 32.1 °F 35.6 °F 93% 30.16 in 4.0 mi North 6.9 mph - N/A   Overcast
12:53 AM 37.4 °F 31.4 °F 35.6 °F 93% 30.15 in 5.0 mi NNE 8.1 mph - N/A   Overcast
1:13 AM 37.4 °F 32.1 °F 35.6 °F 93% 30.15 in 5.0 mi NNE 6.9 mph - N/A   Overcast
1:33 AM 37.4 °F 32.8 °F 35.6 °F 93% 30.15 in 5.0 mi North 5.8 mph - N/A   Overcast
1:53 AM 37.4 °F 32.1 °F 35.6 °F 93% 30.16 in 7.0 mi North 6.9 mph - N/A   Overcast
2:13 AM 37.4 °F 32.1 °F 35.6 °F 93% 30.16 in 10.0 mi North 6.9 mph - N/A   Overcast
2:33 AM 37.4 °F 32.1 °F 35.6 °F 93% 30.16 in 10.0 mi North 6.9 mph - N/A   Overcast
2:53 AM 37.4 °F 31.4 °F 35.6 °F 93% 30.16 in 10.0 mi North 8.1 mph - N/A   Overcast
3:13 AM 37.4 °F 31.4 °F 35.6 °F 93% 30.16 in 10.0 mi North 8.1 mph - N/A   Overcast
3:33 AM 37.4 °F 32.1 °F 35.6 °F 93% 30.16 in 10.0 mi North 6.9 mph - N/A   Overcast
3:53 AM 37.4 °F 32.1 °F 35.6 °F 93% 30.16 in 10.0 mi North 6.9 mph - N/A   Overcast
4:13 AM 37.4 °F 32.1 °F 35.6 °F 93% 30.16 in 10.0 mi North 6.9 mph - N/A   Overcast
4:33 AM 37.4 °F 30.8 °F 33.8 °F 87% 30.17 in 10.0 mi NNE 9.2 mph - N/A   Overcast
4:53 AM 37.4 °F 30.8 °F 33.8 °F 87% 30.17 in 10.0 mi NE 9.2 mph - N/A   Overcast
5:13 AM 37.4 °F 32.1 °F 33.8 °F 87% 30.18 in 10.0 mi NNE 6.9 mph - N/A   Overcast
5:33 AM 37.4 °F 30.8 °F 33.8 °F 87% 30.18 in 10.0 mi NNE 9.2 mph - N/A   Overcast
5:53 AM 37.4 °F 32.1 °F 33.8 °F 87% 30.18 in 10.0 mi North 6.9 mph - N/A   Overcast
6:13 AM 35.6 °F 30.7 °F 33.8 °F 93% 30.18 in 7.0 mi North 5.8 mph - N/A   Overcast
6:33 AM 35.6 °F 29.9 °F 33.8 °F 93% 30.18 in 3.0 mi North 6.9 mph - N/A Snow Light Snow
6:53 AM 35.6 °F 29.9 °F 33.8 °F 93% 30.17 in 3.0 mi NNE 6.9 mph - N/A Snow Light Snow
7:13 AM 35.6 °F 29.9 °F 33.8 °F 93% 30.17 in 3.0 mi NE 6.9 mph - N/A   Overcast
7:33 AM 35.6 °F 30.7 °F 33.8 °F 93% 30.17 in 4.0 mi NNE 5.8 mph - N/A   Overcast
7:53 AM 35.6 °F 30.7 °F 35.6 °F 100% 30.17 in 5.0 mi NE 5.8 mph - N/A   Overcast
8:13 AM 35.6 °F 29.9 °F 35.6 °F 100% 30.17 in 7.0 mi NE 6.9 mph - N/A   Overcast
8:34 AM 35.6 °F 30.7 °F 35.6 °F 100% 30.18 in 7.0 mi NNE 5.8 mph - N/A   Overcast
8:53 AM 35.6 °F 30.7 °F 35.6 °F 100% 30.18 in 7.0 mi NNE 5.8 mph - N/A   Overcast
9:13 AM 35.6 °F 29.9 °F 35.6 °F 100% 30.18 in 10.0 mi NE 6.9 mph - N/A   Overcast
9:33 AM 35.6 °F 31.7 °F 35.6 °F 100% 30.17 in 10.0 mi ENE 4.6 mph - N/A   Overcast
9:53 AM 37.4 °F 34.9 °F 35.6 °F 93% 30.18 in 10.0 mi ENE 3.5 mph - N/A   Overcast
10:14 AM 37.4 °F 34.9 °F 35.6 °F 93% 30.18 in 10.0 mi NNE 3.5 mph - N/A   Overcast
10:33 AM 37.4 °F 34.9 °F 35.6 °F 93% 30.17 in 10.0 mi NE 3.5 mph - N/A   Overcast
10:54 AM 37.4 °F 34.9 °F 35.6 °F 93% 30.17 in 10.0 mi ENE 3.5 mph - N/A   Overcast
11:14 AM 37.4 °F - 33.8 °F 87% 30.17 in 10.0 mi Calm Calm - N/A   Overcast
11:33 AM 37.4 °F - 33.8 °F 87% 30.16 in 10.0 mi Calm Calm - N/A   Overcast
11:53 AM 37.4 °F - 35.6 °F 93% 30.16 in 10.0 mi Calm Calm - N/A   Overcast
12:13 PM 37.4 °F 34.9 °F 35.6 °F 93% 30.15 in 10.0 mi NNW 3.5 mph - N/A   Overcast
12:33 PM 37.4 °F - 35.6 °F 93% 30.14 in 10.0 mi Calm Calm - N/A   Overcast
12:53 PM 37.4 °F - 35.6 °F 93% 30.12 in 10.0 mi Calm Calm - N/A   Overcast
1:13 PM 37.4 °F - 35.6 °F 93% 30.10 in 10.0 mi Calm Calm - N/A   Overcast
1:33 PM 39.2 °F - 35.6 °F 87% 30.10 in 10.0 mi Calm Calm - N/A   Overcast
1:53 PM 37.4 °F - 35.6 °F 93% 30.10 in 10.0 mi Calm Calm - N/A   Overcast
2:13 PM 39.2 °F - 35.6 °F 87% 30.09 in 10.0 mi Calm Calm - N/A   Overcast
2:33 PM 39.2 °F - 35.6 °F 87% 30.08 in 10.0 mi Calm Calm - N/A   Overcast
2:53 PM 39.2 °F - 35.6 °F 87% 30.07 in 10.0 mi Calm Calm - N/A   Overcast
3:13 PM 39.2 °F 37.0 °F 35.6 °F 87% 30.07 in 10.0 mi South 3.5 mph - N/A   Overcast
3:33 PM 39.2 °F 35.9 °F 35.6 °F 87% 30.06 in 10.0 mi South 4.6 mph - N/A   Overcast
3:53 PM 39.2 °F 35.9 °F 35.6 °F 87% 30.06 in 10.0 mi WSW 4.6 mph - N/A   Overcast
4:13 PM 39.2 °F 37.0 °F 35.6 °F 87% 30.06 in 10.0 mi South 3.5 mph - N/A   Overcast
4:33 PM 39.2 °F 35.9 °F 35.6 °F 87% 30.05 in 10.0 mi South 4.6 mph - N/A   Overcast
4:53 PM 39.2 °F 35.9 °F 35.6 °F 87% 30.04 in 10.0 mi SSE 4.6 mph - N/A   Mostly Cloudy
5:13 PM 37.4 °F 33.8 °F 35.6 °F 93% 30.03 in 10.0 mi SSE 4.6 mph - N/A   Scattered Clouds
5:33 PM 37.4 °F 32.8 °F 35.6 °F 93% 30.02 in 10.0 mi SSE 5.8 mph - N/A   Clear
5:53 PM 37.4 °F 32.8 °F 35.6 °F 93% 30.03 in 10.0 mi South 5.8 mph - N/A   Clear
6:13 PM 37.4 °F 32.8 °F 35.6 °F 93% 30.02 in 7.0 mi South 5.8 mph - N/A   Clear
6:33 PM 37.4 °F 32.8 °F 35.6 °F 93% 30.02 in 7.0 mi South 5.8 mph - N/A   Clear
6:53 PM 37.4 °F 32.8 °F 35.6 °F 93% 30.01 in 7.0 mi South 5.8 mph - N/A   Clear
7:13 PM 37.4 °F 32.8 °F 35.6 °F 93% 30.01 in 7.0 mi South 5.8 mph - N/A   Clear
7:33 PM 35.6 °F 30.7 °F 33.8 °F 93% 29.99 in 5.0 mi SSW 5.8 mph - N/A   Clear
7:53 PM 35.6 °F 30.7 °F 33.8 °F 93% 29.98 in 7.0 mi SSW 5.8 mph - N/A   Clear
8:13 PM 37.4 °F 32.8 °F 33.8 °F 87% 29.96 in 7.0 mi SSW 5.8 mph - N/A   Clear
8:34 PM 37.4 °F 31.4 °F 33.8 °F 87% 29.95 in 7.0 mi South 8.1 mph - N/A   Scattered Clouds
8:53 PM 37.4 °F 32.8 °F 33.8 °F 87% 29.95 in 7.0 mi South 5.8 mph - N/A   Scattered Clouds
9:13 PM 37.4 °F 30.3 °F 33.8 °F 87% 29.93 in 7.0 mi South 10.4 mph - N/A   Scattered Clouds
9:33 PM 37.4 °F 29.3 °F 33.8 °F 87% 29.91 in 7.0 mi South 12.7 mph - N/A Rain Light Rain
9:53 PM 37.4 °F 29.8 °F 33.8 °F 87% 29.90 in 10.0 mi South 11.5 mph 19.6 mph N/A   Overcast
10:13 PM 37.4 °F 30.8 °F 33.8 °F 87% 29.89 in 10.0 mi South 9.2 mph - N/A   Overcast
10:33 PM 37.4 °F 30.8 °F 33.8 °F 87% 29.90 in 10.0 mi South 9.2 mph - N/A   Overcast
10:53 PM 37.4 °F 31.4 °F 33.8 °F 87% 29.88 in 7.0 mi South 8.1 mph - N/A Rain Rain
11:13 PM 37.4 °F 30.8 °F 35.6 °F 93% 29.87 in 5.0 mi South 9.2 mph - 0.01 in Rain Rain
11:34 PM 37.4 °F 31.4 °F 35.6 °F 93% 29.86 in 5.0 mi South 8.1 mph - 0.02 in Rain Light Rain
11:53 PM 37.4 °F 30.3 °F 35.6 °F 93% 29.84 in 4.0 mi South 10.4 mph - 0.02 in Rain Light Rain